Salvador Airport, Brazil

1:12 AM -02 en Diciembre 16, 2018 (GMT -0200)
DEP. L. E. Magalhaes International

Tiempo Historia de SBSV - Mayo, 2018

Change the Weather History Date:

Jueves, Mayo 17, 2018

  Actual Average Record
Temperature  
Temperatura media 80 ° F -  
Temperatura máxima 85 ° F 80 ° F 87 ° F (2005)
Temperatura mínima 75 ° F 71 ° F 69 ° F (2000)
Cooling Degree Days 15    
Growing Degree Days 30 (Base 50)    
Moisture  
Punto de rocío 74 ° F    
Average Humidity 78    
Maximum Humidity 100    
Minimum Humidity 59    
Precipitación  
Precipitación 0.00 pul - - ()
Presión al nivel del mar  
Presión al nivel del mar 29.97 pul    
Viento  
Velocidad del viento 5 mph ()    
Velocidad máxima del viento 10 mph    
Max Gust Speed -    
Visibilidad 7.6 Millas    
Eventos      
Averages and records for this station are not official NWS values.
T = Trace of Precipitation, MM = Missing Value Source: Averaged Metar Reports

Daily Weather History Graph

Daily Weather History Graph

Search for Another Location

Airport or City:

Astronomía

May. 17, 2018 Salida Puesta
Hora real 5:44 AM -03 5:14 PM -03
Crepúsculo civil 5:22 AM -03 5:37 PM -03
Crepúsculo náutico 4:56 AM -03 6:03 PM -03
Crepúsculo astronómico 4:30 AM -03 6:28 PM -03
Luna 7:43 AM -03 (5/17) 7:32 PM -03 (5/17)
Horas de luz 12h 15m
Horas de luz
11h 30m
Creciente, 6% of the Moon is Illuminated
May 17
Creciente
May 22
Cuarto creciente
May 29
Luna llena
Jun 6
Cuarto menguante
Jun 13
Nueva

Hourly Weather History & Observations

Hora (-03) Temp. Índice de calor Punto de rocío Humedad Presión Visibilidad Wind Dir Velocidad del viento Velocidad de ráfagas Precip Eventos Condiciones
12:00 AM 79 ° F - 74 ° F 80% 29.99 pul 12 mi Este 5.8 mph - -   Parcialmente nublado
12:00 AM 78.8 ° F - 73.4 ° F 83% 29.98 pul 6.2 mi Este 5.8 mph - N/A   Muy nublado
1:00 AM 77.0 ° F - 73.4 ° F 89% 29.98 pul 6.2 mi Norte 3.5 mph - N/A   Muy nublado
2:00 AM 77.0 ° F - 73.4 ° F 89% 29.95 pul 6.2 mi OSO 2.3 mph - N/A   Nubes dispersas
3:00 AM 76 ° F - 74 ° F 93% 29.96 pul 12 mi Sin viento Sin viento - -   Parcialmente nublado
3:00 AM 75.2 ° F - 75.2 ° F 100% 29.95 pul 6.2 mi Sin viento Sin viento - N/A   Nubes dispersas
4:00 AM 75.2 ° F - 73.4 ° F 94% 29.95 pul 6.2 mi SO 2.3 mph - N/A   Nubes dispersas
5:00 AM 75.2 ° F - 73.4 ° F 94% 29.95 pul 6.2 mi Oeste 2.3 mph - N/A   Nubes dispersas
6:00 AM 76 ° F - 74 ° F 91% 29.96 pul 12 mi NNO 2.3 mph - -   Parcialmente nublado
6:00 AM 75.2 ° F - 73.4 ° F 94% 29.95 pul 6.2 mi NNO 2.3 mph - N/A   Nubes dispersas
7:00 AM 77.0 ° F - 75.2 ° F 94% 29.98 pul 6.2 mi NO 2.3 mph - N/A   Nubes dispersas
8:00 AM 82.4 ° F 89.5 ° F 75.2 ° F 79% 30.01 pul 6.2 mi Sin viento Sin viento - N/A   Nubes dispersas
9:00 AM 83 ° F - 74 ° F 67% 30.02 pul 12 mi ENE 8.1 mph - -   Parcialmente nublado
9:00 AM 84.2 ° F 90.9 ° F 73.4 ° F 70% 30.01 pul 6.2 mi ENE 8.1 mph - N/A   Nubes dispersas
10:00 AM 84.2 ° F 92.3 ° F 75.2 ° F 74% 30.01 pul 6.2 mi ENE 9.2 mph - N/A   Parcialmente nublado
11:00 AM 82.4 ° F 89.5 ° F 75.2 ° F 79% 30.01 pul 6.2 mi Este 8.1 mph - N/A   Nubes dispersas
12:00 PM 84 ° F - 74 ° F 66% 29.99 pul 12 mi Este 9.2 mph - -   Parcialmente nublado
12:00 PM 84.2 ° F 92.3 ° F 75.2 ° F 74% 29.98 pul 6.2 mi Este 9.2 mph - N/A   Nubes dispersas
1:00 PM 86.0 ° F 93.4 ° F 73.4 ° F 66% 29.95 pul 6.2 mi Este 9.2 mph - N/A   Nubes dispersas
2:00 PM 84.2 ° F 90.9 ° F 73.4 ° F 70% 29.95 pul 6.2 mi Este 10.4 mph - N/A   Nubes dispersas
3:00 PM 85 ° F - 73 ° F 59% 29.94 pul 12 mi ESE 10.4 mph - -   Parcialmente nublado
3:00 PM 84.2 ° F 90.9 ° F 73.4 ° F 70% 29.95 pul 6.2 mi ESE 10.4 mph - N/A   Nubes dispersas
4:00 PM 84.2 ° F 90.9 ° F 73.4 ° F 70% 29.95 pul 6.2 mi Este 10.4 mph - N/A   Nubes dispersas
5:00 PM 82.4 ° F 87.2 ° F 71.6 ° F 70% 29.95 pul 6.2 mi ESE 9.2 mph - N/A   Nubes dispersas
6:00 PM 82 ° F - 72 ° F 65% 29.96 pul 12 mi ESE 8.1 mph - -   Nubes dispersas
6:00 PM 82.4 ° F 87.2 ° F 71.6 ° F 70% 29.95 pul 6.2 mi ESE 8.1 mph - N/A   Parcialmente nublado
7:00 PM 80.6 ° F 84.6 ° F 71.6 ° F 74% 29.95 pul 6.2 mi ESE 8.1 mph - N/A   Parcialmente nublado
8:00 PM 82.4 ° F 87.2 ° F 71.6 ° F 70% 29.98 pul 6.2 mi ESE 9.2 mph - N/A   Parcialmente nublado
9:00 PM 81 ° F - 73 ° F 71% 30.00 pul 12 mi ESE 8.1 mph - -   Parcialmente nublado
9:00 PM 80.6 ° F 85.4 ° F 73.4 ° F 79% 29.98 pul 6.2 mi ESE 8.1 mph - N/A   Nubes dispersas
10:00 PM 82.4 ° F 88.2 ° F 73.4 ° F 74% 30.01 pul 6.2 mi ESE 9.2 mph - N/A   Nubes dispersas
11:00 PM 80.6 ° F 85.4 ° F 73.4 ° F 79% 30.01 pul 6.2 mi ESE 9.2 mph - N/A   Parcialmente nublado